Location: Del Amo
(33.8464°N, 118.2104°W)
Time: 07:15:19
(UTC+00:00)

Tiros 1 - Visible Passes

Search period start: 19 September 2024 00:00
Search period end: 29 September 2024 00:00
Orbit: 623 x 655 km, 48.4° (Epoch: 19 September)

Date Brightness Start Highest point End Pass type
(mag) Time Alt. Az. Time Alt. Az. Time Alt. Az.
19 Sep 7.7 03:33:05 10° NW 03:37:27 40° NNE 03:37:47 39° NE visible
19 Sep 10.3 05:15:12 10° WNW 05:15:16 10° WNW 05:15:16 10° WNW visible
20 Sep 8.8 02:14:57 10° NNW 02:18:30 21° NNE 02:22:02 10° ENE visible
20 Sep 7.4 03:56:22 10° NW 04:00:17 63° NW 04:00:17 63° NW visible
21 Sep 8.0 02:38:05 10° NW 02:42:19 35° NNE 02:45:22 17° E visible
21 Sep 8.7 04:20:01 10° WNW 04:22:53 31° W 04:22:53 31° W visible
22 Sep 7.1 03:01:19 10° NW 03:05:56 71° NE 03:08:03 31° ESE visible
22 Sep 9.9 04:44:31 10° W 04:45:34 14° W 04:45:34 14° W visible
23 Sep 7.7 03:24:51 10° WNW 03:29:19 50° SW 03:30:51 35° S visible
24 Sep 7.3 02:06:16 10° NW 02:10:49 60° NE 02:15:24 10° ESE visible
24 Sep 9.1 03:49:04 10° W 03:52:31 21° SW 03:53:48 19° SSW visible
25 Sep 7.6 02:29:42 10° WNW 02:34:15 61° SW 02:38:48 10° SE visible
26 Sep 9.1 02:53:42 10° WNW 02:57:28 25° SW 03:01:15 10° S visible
